Time,TemperatureF,DewpointF,PressureIn,WindDirection,WindDirectionDegrees,WindSpeedMPH,WindSpeedGustMPH,Humidity,HourlyPrecipIn,Conditions,Clouds,dailyrainin,SoftwareType,DateUTC
2013-02-06 00:02:00,61.3,41.5,29.66,ESE,104,0.0,0.0,48,0.00,,,0.00,meteohub,2013-02-06 08:02:00,
2013-02-06 00:08:00,61.3,41.5,29.66,ESE,104,0.0,0.0,48,0.00,,,0.00,meteohub,2013-02-06 08:08:00,
2013-02-06 00:14:00,61.3,42.1,29.66,ESE,104,0.0,0.0,49,0.00,,,0.00,meteohub,2013-02-06 08:14:00,
2013-02-06 00:20:00,61.3,42.1,29.66,ESE,104,0.0,0.0,49,0.00,,,0.00,meteohub,2013-02-06 08:20:00,
2013-02-06 00:26:00,61.3,42.1,29.66,East,98,0.0,3.0,49,0.00,,,0.00,meteohub,2013-02-06 08:26:00,
2013-02-06 00:32:00,61.3,42.1,29.66,SE,128,0.0,3.0,49,0.00,,,0.00,meteohub,2013-02-06 08:32:00,
2013-02-06 00:38:00,61.3,42.1,29.66,ENE,59,0.0,3.0,49,0.00,,,0.00,meteohub,2013-02-06 08:38:00,
2013-02-06 00:44:00,61.3,41.5,29.66,ENE,59,0.0,5.0,48,0.00,,,0.00,meteohub,2013-02-06 08:44:00,
2013-02-06 00:50:00,61.3,41.5,29.66,ENE,59,0.0,5.0,48,0.00,,,0.00,meteohub,2013-02-06 08:50:00,
2013-02-06 00:56:00,61.3,41.5,29.66,ENE,59,0.0,0.0,48,0.00,,,0.00,meteohub,2013-02-06 08:56:00,
2013-02-06 01:02:00,61.3,42.1,29.66,ENE,59,0.0,0.0,49,0.00,,,0.00,meteohub,2013-02-06 09:02:00,
2013-02-06 01:08:00,61.3,42.1,29.66,ENE,62,0.0,0.0,49,0.00,,,0.00,meteohub,2013-02-06 09:08:00,
2013-02-06 01:14:00,61.2,41.4,29.66,ENE,62,0.0,0.0,48,0.00,,,0.00,meteohub,2013-02-06 09:14:00,
2013-02-06 01:20:00,61.2,41.4,29.66,ENE,62,0.0,0.0,48,0.00,,,0.00,meteohub,2013-02-06 09:20:00,
2013-02-06 01:26:00,61.2,41.4,29.66,ENE,62,0.0,0.0,48,0.00,,,0.00,meteohub,2013-02-06 09:26:00,
2013-02-06 01:32:00,61.2,41.4,29.66,ENE,63,0.0,0.0,48,0.00,,,0.00,meteohub,2013-02-06 09:32:00,
2013-02-06 01:39:00,61.3,41.5,29.66,ESE,107,0.0,0.0,48,0.00,,,0.00,meteohub,2013-02-06 09:39:00,
2013-02-06 01:45:00,61.2,41.4,29.66,East,84,0.0,4.0,48,0.00,,,0.00,meteohub,2013-02-06 09:45:00,
2013-02-06 01:51:00,61.2,41.4,29.66,ESE,107,0.0,4.0,48,0.00,,,0.00,meteohub,2013-02-06 09:51:00,
2013-02-06 01:57:00,61.2,41.4,29.66,ESE,112,0.0,4.0,48,0.00,,,0.00,meteohub,2013-02-06 09:57:00,
2013-02-06 02:03:00,61.2,41.4,29.66,ENE,64,0.0,4.0,48,0.00,,,0.00,meteohub,2013-02-06 10:03:00,
2013-02-06 02:09:00,61.2,41.4,29.66,NE,50,0.0,3.0,48,0.00,,,0.00,meteohub,2013-02-06 10:09:00,
2013-02-06 02:15:00,61.2,40.8,29.66,East,82,3.0,5.0,47,0.00,,,0.00,meteohub,2013-02-06 10:15:00,
2013-02-06 02:21:00,61.0,40.6,29.66,ESE,105,3.0,5.0,47,0.00,,,0.00,meteohub,2013-02-06 10:21:00,
2013-02-06 02:27:00,61.0,40.6,29.66,SE,141,0.0,5.0,47,0.00,,,0.00,meteohub,2013-02-06 10:27:00,
2013-02-06 02:33:00,61.0,40.6,29.66,SE,141,0.0,5.0,47,0.00,,,0.00,meteohub,2013-02-06 10:33:00,
2013-02-06 02:39:00,61.0,40.6,29.66,SE,129,0.0,4.0,47,0.00,,,0.00,meteohub,2013-02-06 10:39:00,
2013-02-06 02:45:00,61.0,40.6,29.66,ESE,103,0.0,0.0,47,0.00,,,0.00,meteohub,2013-02-06 10:45:00,
2013-02-06 02:51:00,61.0,40.6,29.66,ENE,77,0.0,4.0,47,0.00,,,0.00,meteohub,2013-02-06 10:51:00,
2013-02-06 02:57:00,61.0,40.6,29.63,ENE,78,0.0,4.0,47,0.00,,,0.00,meteohub,2013-02-06 10:57:00,
2013-02-06 03:03:00,61.0,40.6,29.63,East,81,0.0,4.0,47,0.00,,,0.00,meteohub,2013-02-06 11:03:00,
2013-02-06 03:09:00,61.0,41.2,29.63,East,85,3.0,3.0,48,0.00,,,0.00,meteohub,2013-02-06 11:09:00,
2013-02-06 03:15:00,61.0,41.2,29.63,ENE,78,3.0,4.0,48,0.00,,,0.00,meteohub,2013-02-06 11:15:00,
2013-02-06 03:21:00,61.0,41.2,29.63,ENE,63,0.0,4.0,48,0.00,,,0.00,meteohub,2013-02-06 11:21:00,
2013-02-06 03:27:00,60.8,39.9,29.63,NNE,27,0.0,4.0,46,0.00,,,0.00,meteohub,2013-02-06 11:27:00,
2013-02-06 03:33:00,61.0,40.6,29.63,NNE,27,0.0,4.0,47,0.00,,,0.00,meteohub,2013-02-06 11:33:00,
2013-02-06 03:39:00,60.8,40.5,29.63,NNE,27,0.0,0.0,47,0.00,,,0.00,meteohub,2013-02-06 11:39:00,
2013-02-06 03:45:00,60.8,40.5,29.63,NNE,27,0.0,0.0,47,0.00,,,0.00,meteohub,2013-02-06 11:45:00,
2013-02-06 03:51:00,60.6,40.8,29.63,NNE,27,0.0,0.0,48,0.00,,,0.00,meteohub,2013-02-06 11:51:00,
2013-02-06 03:57:00,60.8,40.5,29.63,NNE,27,0.0,0.0,47,0.00,,,0.00,meteohub,2013-02-06 11:57:00,
2013-02-06 04:03:00,60.8,40.5,29.63,NE,56,0.0,0.0,47,0.00,,,0.00,meteohub,2013-02-06 12:03:00,
2013-02-06 04:09:00,61.0,40.6,29.63,ENE,78,2.0,0.0,47,0.00,,,0.00,meteohub,2013-02-06 12:09:00,
2013-02-06 04:15:00,60.8,40.5,29.63,NNE,23,0.0,5.0,47,0.00,,,0.00,meteohub,2013-02-06 12:15:00,
2013-02-06 04:21:00,60.8,40.5,29.63,NNE,33,4.0,6.0,47,0.00,,,0.00,meteohub,2013-02-06 12:21:00,
2013-02-06 04:27:00,60.8,40.5,29.63,East,88,3.0,6.0,47,0.00,,,0.00,meteohub,2013-02-06 12:27:00,
2013-02-06 04:33:00,61.0,40.6,29.63,ENE,71,3.0,6.0,47,0.00,,,0.00,meteohub,2013-02-06 12:33:00,
2013-02-06 04:39:00,61.0,40.6,29.63,NNE,21,0.0,6.0,47,0.00,,,0.00,meteohub,2013-02-06 12:39:00,
2013-02-06 04:45:00,60.8,40.5,29.63,East,89,3.0,6.0,47,0.00,,,0.00,meteohub,2013-02-06 12:45:00,
2013-02-06 04:51:00,60.8,40.5,29.63,ENE,61,4.0,6.0,47,0.00,,,0.00,meteohub,2013-02-06 12:51:00,
2013-02-06 04:57:00,60.8,40.5,29.63,NE,34,0.0,6.0,47,0.00,,,0.00,meteohub,2013-02-06 12:57:00,
2013-02-06 05:04:00,60.8,40.5,29.63,East,89,4.0,6.0,47,0.00,,,0.00,meteohub,2013-02-06 13:04:00,
2013-02-06 05:10:00,60.8,40.5,29.63,NE,52,4.0,6.0,47,0.00,,,0.00,meteohub,2013-02-06 13:10:00,
2013-02-06 05:16:00,60.8,40.5,29.63,NE,50,3.0,6.0,47,0.00,,,0.00,meteohub,2013-02-06 13:16:00,
2013-02-06 05:22:00,60.8,40.5,29.63,ESE,106,3.0,6.0,47,0.00,,,0.00,meteohub,2013-02-06 13:22:00,
2013-02-06 05:28:00,60.8,40.5,29.63,North,357,0.0,5.0,47,0.00,,,0.00,meteohub,2013-02-06 13:28:00,
2013-02-06 05:34:00,60.8,40.5,29.63,ENE,71,4.0,5.0,47,0.00,,,0.00,meteohub,2013-02-06 13:34:00,
2013-02-06 05:40:00,60.8,40.5,29.63,NE,49,3.0,5.0,47,0.00,,,0.00,meteohub,2013-02-06 13:40:00,
2013-02-06 05:46:00,60.8,40.5,29.63,ENE,69,0.0,5.0,47,0.00,,,0.00,meteohub,2013-02-06 13:46:00,
2013-02-06 05:52:00,60.8,40.5,29.63,ENE,71,3.0,5.0,47,0.00,,,0.00,meteohub,2013-02-06 13:52:00,
2013-02-06 05:58:00,60.8,39.9,29.63,ENE,63,5.0,6.0,46,0.00,,,0.00,meteohub,2013-02-06 13:58:00,
2013-02-06 06:04:00,60.8,39.9,29.63,NE,53,4.0,6.0,46,0.00,,,0.00,meteohub,2013-02-06 14:04:00,
2013-02-06 06:10:00,60.8,39.9,29.66,NE,36,3.0,6.0,46,0.00,,,0.00,meteohub,2013-02-06 14:10:00,
2013-02-06 06:16:00,60.8,39.9,29.66,NE,37,0.0,6.0,46,0.00,,,0.00,meteohub,2013-02-06 14:16:00,
2013-02-06 06:22:00,60.8,39.9,29.66,NE,35,0.0,5.0,46,0.00,,,0.00,meteohub,2013-02-06 14:22:00,
2013-02-06 06:28:00,60.8,39.9,29.66,East,99,3.0,4.0,46,0.00,,,0.00,meteohub,2013-02-06 14:28:00,
2013-02-06 06:34:00,60.8,39.4,29.66,NE,54,3.0,5.0,45,0.00,,,0.00,meteohub,2013-02-06 14:34:00,
2013-02-06 06:40:00,60.8,39.4,29.66,ENE,75,4.0,5.0,45,0.00,,,0.00,meteohub,2013-02-06 14:40:00,
2013-02-06 06:46:00,60.8,39.4,29.66,NE,53,0.0,5.0,45,0.00,,,0.00,meteohub,2013-02-06 14:46:00,
2013-02-06 06:52:00,60.8,39.4,29.66,ENE,69,0.0,5.0,45,0.00,,,0.00,meteohub,2013-02-06 14:52:00,
2013-02-06 06:58:00,60.8,39.4,29.66,ENE,73,0.0,5.0,45,0.00,,,0.00,meteohub,2013-02-06 14:58:00,
2013-02-06 07:04:00,60.8,39.4,29.66,NNE,26,4.0,4.0,45,0.00,,,0.00,meteohub,2013-02-06 15:04:00,
2013-02-06 07:10:00,61.0,39.6,29.66,NE,50,0.0,5.0,45,0.00,,,0.00,meteohub,2013-02-06 15:10:00,
2013-02-06 07:16:00,61.2,39.7,29.66,ESE,108,3.0,6.0,45,0.00,,,0.00,meteohub,2013-02-06 15:16:00,
2013-02-06 07:22:00,61.2,39.0,29.66,NE,47,0.0,6.0,44,0.00,,,0.00,meteohub,2013-02-06 15:22:00,
2013-02-06 07:28:00,61.3,38.7,29.66,North,11,0.0,4.0,43,0.00,,,0.00,meteohub,2013-02-06 15:28:00,
2013-02-06 07:34:00,61.5,38.8,29.66,NE,38,0.0,4.0,43,0.00,,,0.00,meteohub,2013-02-06 15:34:00,
2013-02-06 07:40:00,61.9,38.5,29.66,NNE,28,0.0,5.0,42,0.00,,,0.00,meteohub,2013-02-06 15:40:00,
2013-02-06 07:46:00,62.1,38.1,29.66,East,97,0.0,5.0,41,0.00,,,0.00,meteohub,2013-02-06 15:46:00,
2013-02-06 07:52:00,62.2,37.6,29.66,ESE,106,3.0,5.0,40,0.00,,,0.00,meteohub,2013-02-06 15:52:00,
2013-02-06 07:58:00,62.8,38.1,29.66,ESE,116,0.0,4.0,40,0.00,,,0.00,meteohub,2013-02-06 15:58:00,
2013-02-06 08:05:00,63.1,37.0,29.66,NE,41,0.0,4.0,38,0.00,,,0.00,meteohub,2013-02-06 16:05:00,
2013-02-06 08:11:00,63.3,36.7,29.66,East,95,0.0,5.0,37,0.00,,,0.00,meteohub,2013-02-06 16:11:00,
2013-02-06 08:17:00,63.7,36.9,29.66,ESE,103,3.0,4.0,37,0.00,,,0.00,meteohub,2013-02-06 16:17:00,
2013-02-06 08:23:00,63.9,36.3,29.66,SSE,152,0.0,4.0,36,0.00,,,0.00,meteohub,2013-02-06 16:23:00,
2013-02-06 08:29:00,64.2,36.0,29.69,NE,51,0.0,3.0,35,0.00,,,0.00,meteohub,2013-02-06 16:29:00,
2013-02-06 08:35:00,64.2,36.0,29.69,East,100,2.0,5.0,35,0.00,,,0.00,meteohub,2013-02-06 16:35:00,
2013-02-06 08:41:00,63.9,35.6,29.69,SE,125,0.0,5.0,35,0.00,,,0.00,meteohub,2013-02-06 16:41:00,
2013-02-06 08:47:00,63.1,35.1,29.69,SSE,147,0.0,5.0,35,0.00,,,0.00,meteohub,2013-02-06 16:47:00,
2013-02-06 08:53:00,63.5,35.4,29.69,South,182,3.0,5.0,35,0.00,,,0.00,meteohub,2013-02-06 16:53:00,
2013-02-06 08:59:00,64.4,35.4,29.69,SSE,149,0.0,5.0,34,0.00,,,0.00,meteohub,2013-02-06 16:59:00,
2013-02-06 09:05:00,64.0,34.3,29.69,South,186,0.0,4.0,33,0.00,,,0.00,meteohub,2013-02-06 17:05:00,
2013-02-06 09:11:00,64.2,35.2,29.69,SSW,208,4.0,5.0,34,0.00,,,0.00,meteohub,2013-02-06 17:11:00,
2013-02-06 09:17:00,63.7,34.7,29.69,South,172,3.0,6.0,34,0.00,,,0.00,meteohub,2013-02-06 17:17:00,
2013-02-06 09:23:00,64.0,35.1,29.69,SSE,162,3.0,6.0,34,0.00,,,0.00,meteohub,2013-02-06 17:23:00,
2013-02-06 09:29:00,63.9,34.9,29.69,SSE,159,3.0,6.0,34,0.00,,,0.00,meteohub,2013-02-06 17:29:00,
2013-02-06 09:35:00,64.4,34.7,29.69,South,186,4.0,6.0,33,0.00,,,0.00,meteohub,2013-02-06 17:35:00,
2013-02-06 09:41:00,65.5,35.6,29.69,SSE,166,4.0,6.0,33,0.00,,,0.00,meteohub,2013-02-06 17:41:00,
2013-02-06 09:47:00,63.5,33.8,29.69,South,183,5.0,6.0,33,0.00,,,0.00,meteohub,2013-02-06 17:47:00,
2013-02-06 09:53:00,64.4,34.7,29.69,SSW,205,4.0,6.0,33,0.00,,,0.00,meteohub,2013-02-06 17:53:00,
2013-02-06 09:59:00,63.5,34.7,29.69,South,191,5.0,6.0,34,0.00,,,0.00,meteohub,2013-02-06 17:59:00,
2013-02-06 10:05:00,63.7,34.7,29.69,SSE,165,6.0,6.0,34,0.00,,,0.00,meteohub,2013-02-06 18:05:00,
2013-02-06 10:11:00,63.5,35.4,29.69,South,177,4.0,8.0,35,0.00,,,0.00,meteohub,2013-02-06 18:11:00,
2013-02-06 10:17:00,63.7,34.7,29.69,South,190,4.0,8.0,34,0.00,,,0.00,meteohub,2013-02-06 18:17:00,
2013-02-06 10:23:00,64.2,35.2,29.69,SSE,168,6.0,8.0,34,0.00,,,0.00,meteohub,2013-02-06 18:23:00,
2013-02-06 10:29:00,64.9,35.1,29.69,South,187,4.0,8.0,33,0.00,,,0.00,meteohub,2013-02-06 18:29:00,
2013-02-06 10:35:00,64.9,36.0,29.69,South,182,4.0,8.0,34,0.00,,,0.00,meteohub,2013-02-06 18:35:00,
2013-02-06 10:41:00,69.4,34.9,29.69,SE,127,4.0,8.0,28,0.00,,,0.00,meteohub,2013-02-06 18:41:00,
2013-02-06 10:47:00,68.9,32.5,29.69,SSW,204,4.0,7.0,26,0.00,,,0.00,meteohub,2013-02-06 18:47:00,
2013-02-06 10:53:00,69.1,33.6,29.69,South,184,6.0,6.0,27,0.00,,,0.00,meteohub,2013-02-06 18:53:00,
2013-02-06 10:59:00,71.1,32.4,29.69,SSE,148,5.0,8.0,24,0.00,,,0.00,meteohub,2013-02-06 18:59:00,
2013-02-06 11:05:00,72.0,33.3,29.69,ESE,123,4.0,8.0,24,0.00,,,0.00,meteohub,2013-02-06 19:05:00,
2013-02-06 11:11:00,72.9,34.0,29.69,SE,135,6.0,8.0,24,0.00,,,0.00,meteohub,2013-02-06 19:11:00,
2013-02-06 11:17:00,69.6,32.2,29.69,SW,216,4.0,8.0,25,0.00,,,0.00,meteohub,2013-02-06 19:17:00,
2013-02-06 11:22:00,72.9,32.9,29.69,SSE,166,5.0,8.0,23,0.00,,,0.00,meteohub,2013-02-06 19:22:00,
2013-02-06 11:28:00,70.3,31.8,29.69,SSE,157,8.0,8.0,24,0.00,,,0.00,meteohub,2013-02-06 19:28:00,
2013-02-06 11:34:00,69.8,32.4,29.69,WSW,251,6.0,8.0,25,0.00,,,0.00,meteohub,2013-02-06 19:34:00,
2013-02-06 11:40:00,68.4,32.2,29.69,South,172,8.0,8.0,26,0.00,,,0.00,meteohub,2013-02-06 19:40:00,
2013-02-06 11:46:00,70.9,33.3,29.69,SW,228,3.0,8.0,25,0.00,,,0.00,meteohub,2013-02-06 19:46:00,
2013-02-06 11:52:00,71.8,33.1,29.69,SW,225,6.0,8.0,24,0.00,,,0.00,meteohub,2013-02-06 19:52:00,
2013-02-06 11:58:00,68.9,31.6,29.69,South,170,6.0,8.0,25,0.00,,,0.00,meteohub,2013-02-06 19:58:00,
2013-02-06 12:04:00,70.9,33.3,29.69,SW,218,6.0,8.0,25,0.00,,,0.00,meteohub,2013-02-06 20:04:00,
2013-02-06 12:10:00,70.0,32.5,29.69,South,184,6.0,9.0,25,0.00,,,0.00,meteohub,2013-02-06 20:10:00,
2013-02-06 12:16:00,69.6,33.3,29.69,SSW,211,5.0,9.0,26,0.00,,,0.00,meteohub,2013-02-06 20:16:00,
2013-02-06 12:22:00,72.1,33.4,29.69,South,181,3.0,8.0,24,0.00,,,0.00,meteohub,2013-02-06 20:22:00,
2013-02-06 12:28:00,67.6,31.5,29.69,SW,226,8.0,8.0,26,0.00,,,0.00,meteohub,2013-02-06 20:28:00,
2013-02-06 12:34:00,67.8,32.5,29.69,SW,234,3.0,8.0,27,0.00,,,0.00,meteohub,2013-02-06 20:34:00,
2013-02-06 12:40:00,68.9,33.6,29.69,SW,229,6.0,8.0,27,0.00,,,0.00,meteohub,2013-02-06 20:40:00,
2013-02-06 12:46:00,70.2,33.6,29.66,SW,225,4.0,8.0,26,0.00,,,0.00,meteohub,2013-02-06 20:46:00,
2013-02-06 12:52:00,72.9,34.0,29.66,South,178,5.0,8.0,24,0.00,,,0.00,meteohub,2013-02-06 20:52:00,
2013-02-06 12:58:00,72.7,33.8,29.66,SSW,194,5.0,8.0,24,0.00,,,0.00,meteohub,2013-02-06 20:58:00,
2013-02-06 13:04:00,73.6,33.4,29.66,SW,218,4.0,8.0,23,0.00,,,0.00,meteohub,2013-02-06 21:04:00,
2013-02-06 13:10:00,71.1,32.4,29.66,SW,232,4.0,8.0,24,0.00,,,0.00,meteohub,2013-02-06 21:10:00,
2013-02-06 13:16:00,72.0,32.2,29.66,South,173,3.0,8.0,23,0.00,,,0.00,meteohub,2013-02-06 21:16:00,
2013-02-06 13:22:00,70.2,31.6,29.66,SSW,206,6.0,8.0,24,0.00,,,0.00,meteohub,2013-02-06 21:22:00,
2013-02-06 13:28:00,72.3,32.4,29.66,WSW,243,6.0,8.0,23,0.00,,,0.00,meteohub,2013-02-06 21:28:00,
2013-02-06 13:34:00,71.2,31.5,29.66,WSW,246,6.0,8.0,23,0.00,,,0.00,meteohub,2013-02-06 21:34:00,
2013-02-06 13:40:00,71.8,32.0,29.66,SSW,207,4.0,8.0,23,0.00,,,0.00,meteohub,2013-02-06 21:40:00,
2013-02-06 13:46:00,70.5,30.9,29.66,SSW,203,8.0,8.0,23,0.00,,,0.00,meteohub,2013-02-06 21:46:00,
2013-02-06 13:52:00,72.0,32.2,29.66,NNW,344,4.0,8.0,23,0.00,,,0.00,meteohub,2013-02-06 21:52:00,
2013-02-06 13:58:00,69.6,31.3,29.66,SSW,208,8.0,8.0,24,0.00,,,0.00,meteohub,2013-02-06 21:58:00,
2013-02-06 14:04:00,72.7,32.7,29.66,WSW,237,3.0,8.0,23,0.00,,,0.00,meteohub,2013-02-06 22:04:00,
2013-02-06 14:10:00,70.3,30.7,29.66,SW,214,9.0,9.0,23,0.00,,,0.00,meteohub,2013-02-06 22:10:00,
2013-02-06 14:16:00,70.7,32.2,29.66,WSW,248,6.0,10.0,24,0.00,,,0.00,meteohub,2013-02-06 22:16:00,
2013-02-06 14:22:00,72.0,32.2,29.66,WNW,295,6.0,10.0,23,0.00,,,0.00,meteohub,2013-02-06 22:22:00,
2013-02-06 14:29:00,73.2,32.2,29.66,WNW,284,6.0,10.0,22,0.00,,,0.00,meteohub,2013-02-06 22:29:00,
2013-02-06 14:35:00,75.4,34.0,29.66,SSW,196,4.0,8.0,22,0.00,,,0.00,meteohub,2013-02-06 22:35:00,
2013-02-06 14:41:00,71.8,32.0,29.66,SSW,210,3.0,8.0,23,0.00,,,0.00,meteohub,2013-02-06 22:41:00,
2013-02-06 14:47:00,76.3,34.7,29.66,NNW,346,5.0,8.0,22,0.00,,,0.00,meteohub,2013-02-06 22:47:00,
2013-02-06 14:53:00,72.5,31.5,29.66,WNW,284,4.0,8.0,22,0.00,,,0.00,meteohub,2013-02-06 22:53:00,
2013-02-06 14:59:00,66.6,33.3,29.66,West,262,6.0,8.0,29,0.00,,,0.00,meteohub,2013-02-06 22:59:00,
2013-02-06 15:05:00,66.9,36.1,29.66,WSW,256,5.0,9.0,32,0.00,,,0.00,meteohub,2013-02-06 23:05:00,
2013-02-06 15:11:00,68.4,33.1,29.66,SW,226,4.0,9.0,27,0.00,,,0.00,meteohub,2013-02-06 23:11:00,
2013-02-06 15:17:00,69.6,33.3,29.66,SW,230,6.0,8.0,26,0.00,,,0.00,meteohub,2013-02-06 23:17:00,
2013-02-06 15:23:00,71.2,33.6,29.66,WSW,240,7.0,8.0,25,0.00,,,0.00,meteohub,2013-02-06 23:23:00,
2013-02-06 15:29:00,70.9,32.4,29.66,WSW,241,6.0,8.0,24,0.00,,,0.00,meteohub,2013-02-06 23:29:00,
2013-02-06 15:35:00,71.1,32.4,29.66,WNW,298,4.0,8.0,24,0.00,,,0.00,meteohub,2013-02-06 23:35:00,
2013-02-06 15:41:00,69.3,30.9,29.66,SW,230,5.0,8.0,24,0.00,,,0.00,meteohub,2013-02-06 23:41:00,
2013-02-06 15:47:00,68.4,31.1,29.66,South,190,5.0,8.0,25,0.00,,,0.00,meteohub,2013-02-06 23:47:00,
2013-02-06 15:53:00,68.5,31.3,29.66,SW,217,4.0,6.0,25,0.00,,,0.00,meteohub,2013-02-06 23:53:00,
2013-02-06 15:59:00,71.4,33.8,29.66,West,260,4.0,6.0,25,0.00,,,0.00,meteohub,2013-02-06 23:59:00,
2013-02-06 16:05:00,69.3,32.0,29.66,WSW,243,0.0,8.0,25,0.00,,,0.00,meteohub,2013-02-07 00:05:00,
2013-02-06 16:11:00,70.3,31.8,29.66,West,276,4.0,8.0,24,0.00,,,0.00,meteohub,2013-02-07 00:11:00,
2013-02-06 16:17:00,71.8,33.1,29.66,West,274,5.0,8.0,24,0.00,,,0.00,meteohub,2013-02-07 00:17:00,
2013-02-06 16:23:00,70.9,32.4,29.66,South,178,0.0,6.0,24,0.00,,,0.00,meteohub,2013-02-07 00:23:00,
2013-02-06 16:29:00,70.0,31.5,29.66,NW,312,4.0,6.0,24,0.00,,,0.00,meteohub,2013-02-07 00:29:00,
2013-02-06 16:35:00,67.6,31.5,29.66,WSW,249,5.0,5.0,26,0.00,,,0.00,meteohub,2013-02-07 00:35:00,
2013-02-06 16:41:00,66.4,31.5,29.66,SSW,201,6.0,6.0,27,0.00,,,0.00,meteohub,2013-02-07 00:41:00,
2013-02-06 16:47:00,66.0,32.9,29.66,WSW,254,0.0,6.0,29,0.00,,,0.00,meteohub,2013-02-07 00:47:00,
2013-02-06 16:53:00,66.6,33.3,29.66,WNW,295,0.0,6.0,29,0.00,,,0.00,meteohub,2013-02-07 00:53:00,
2013-02-06 16:59:00,65.8,33.6,29.66,West,259,4.0,6.0,30,0.00,,,0.00,meteohub,2013-02-07 00:59:00,
2013-02-06 17:05:00,64.8,34.2,29.66,SSW,206,3.0,5.0,32,0.00,,,0.00,meteohub,2013-02-07 01:05:00,
2013-02-06 17:11:00,63.5,34.7,29.66,SW,233,0.0,5.0,34,0.00,,,0.00,meteohub,2013-02-07 01:11:00,
2013-02-06 17:17:00,62.4,35.1,29.66,West,260,0.0,5.0,36,0.00,,,0.00,meteohub,2013-02-07 01:17:00,
2013-02-06 17:23:00,61.5,38.8,29.66,West,260,0.0,5.0,43,0.00,,,0.00,meteohub,2013-02-07 01:23:00,
2013-02-06 17:29:00,61.0,39.6,29.66,WNW,303,0.0,4.0,45,0.00,,,0.00,meteohub,2013-02-07 01:29:00,
2013-02-06 17:35:00,60.6,41.9,29.66,NW,314,0.0,5.0,50,0.00,,,0.00,meteohub,2013-02-07 01:35:00,
2013-02-06 17:41:00,60.6,41.9,29.66,West,278,0.0,5.0,50,0.00,,,0.00,meteohub,2013-02-07 01:41:00,
2013-02-06 17:47:00,60.6,41.9,29.66,NW,310,3.0,4.0,50,0.00,,,0.00,meteohub,2013-02-07 01:47:00,
2013-02-06 17:52:00,60.4,42.3,29.66,NW,311,3.0,4.0,51,0.00,,,0.00,meteohub,2013-02-07 01:52:00,
2013-02-06 17:58:00,60.3,41.5,29.66,NW,305,3.0,4.0,50,0.00,,,0.00,meteohub,2013-02-07 01:58:00,
2013-02-06 18:04:00,59.9,41.7,29.66,West,272,0.0,4.0,51,0.00,,,0.00,meteohub,2013-02-07 02:04:00,
2013-02-06 18:10:00,59.9,42.3,29.66,NNW,331,0.0,4.0,52,0.00,,,0.00,meteohub,2013-02-07 02:10:00,
2013-02-06 18:16:00,60.4,43.7,29.69,WNW,289,0.0,3.0,54,0.00,,,0.00,meteohub,2013-02-07 02:16:00,
2013-02-06 18:22:00,60.6,43.9,29.69,NNW,333,0.0,3.0,54,0.00,,,0.00,meteohub,2013-02-07 02:22:00,
2013-02-06 18:28:00,60.4,43.2,29.69,NW,318,0.0,2.0,53,0.00,,,0.00,meteohub,2013-02-07 02:28:00,
2013-02-06 18:34:00,60.1,43.3,29.69,WNW,300,0.0,0.0,54,0.00,,,0.00,meteohub,2013-02-07 02:34:00,
2013-02-06 18:40:00,59.5,43.9,29.69,WNW,300,0.0,2.0,56,0.00,,,0.00,meteohub,2013-02-07 02:40:00,
2013-02-06 18:46:00,59.7,44.1,29.69,NW,319,0.0,2.0,56,0.00,,,0.00,meteohub,2013-02-07 02:46:00,
2013-02-06 18:52:00,59.5,43.9,29.69,NW,319,0.0,0.0,56,0.00,,,0.00,meteohub,2013-02-07 02:52:00,
2013-02-06 18:58:00,59.7,44.1,29.69,North,353,0.0,0.0,56,0.00,,,0.00,meteohub,2013-02-07 02:58:00,
2013-02-06 19:04:00,59.9,44.6,29.69,North,0,0.0,0.0,57,0.00,,,0.00,meteohub,2013-02-07 03:04:00,
2013-02-06 19:10:00,60.1,44.4,29.69,North,353,0.0,3.0,56,0.00,,,0.00,meteohub,2013-02-07 03:10:00,
2013-02-06 19:16:00,59.7,43.5,29.69,North,357,0.0,3.0,55,0.00,,,0.00,meteohub,2013-02-07 03:16:00,
2013-02-06 19:22:00,59.7,43.5,29.69,North,357,0.0,3.0,55,0.00,,,0.00,meteohub,2013-02-07 03:22:00,
2013-02-06 19:28:00,59.7,43.0,29.69,North,0,0.0,3.0,54,0.00,,,0.00,meteohub,2013-02-07 03:28:00,
2013-02-06 19:34:00,59.4,42.3,29.69,North,357,0.0,0.0,53,0.00,,,0.00,meteohub,2013-02-07 03:34:00,
2013-02-06 19:40:00,59.0,41.9,29.69,North,0,0.0,0.0,53,0.00,,,0.00,meteohub,2013-02-07 03:40:00,
2013-02-06 19:46:00,59.0,42.8,29.69,North,0,0.0,0.0,55,0.00,,,0.00,meteohub,2013-02-07 03:46:00,
2013-02-06 19:52:00,59.4,43.7,29.69,North,357,0.0,0.0,56,0.00,,,0.00,meteohub,2013-02-07 03:52:00,
2013-02-06 19:58:00,59.4,43.7,29.69,North,357,0.0,0.0,56,0.00,,,0.00,meteohub,2013-02-07 03:58:00,
2013-02-06 20:04:00,59.2,43.5,29.69,North,353,0.0,0.0,56,0.00,,,0.00,meteohub,2013-02-07 04:04:00,
2013-02-06 20:10:00,59.0,44.2,29.69,North,357,0.0,0.0,58,0.00,,,0.00,meteohub,2013-02-07 04:10:00,
2013-02-06 20:16:00,59.0,44.2,29.69,North,350,0.0,0.0,58,0.00,,,0.00,meteohub,2013-02-07 04:16:00,
2013-02-06 20:22:00,59.0,43.7,29.69,North,353,0.0,0.0,57,0.00,,,0.00,meteohub,2013-02-07 04:22:00,
2013-02-06 20:29:00,59.0,42.8,29.72,North,353,0.0,0.0,55,0.00,,,0.00,meteohub,2013-02-07 04:29:00,
2013-02-06 20:35:00,58.8,42.6,29.72,North,353,0.0,0.0,55,0.00,,,0.00,meteohub,2013-02-07 04:35:00,
2013-02-06 20:41:00,58.5,42.4,29.72,North,353,0.0,0.0,55,0.00,,,0.00,meteohub,2013-02-07 04:41:00,
2013-02-06 20:47:00,58.5,42.8,29.72,North,357,0.0,0.0,56,0.00,,,0.00,meteohub,2013-02-07 04:47:00,
2013-02-06 20:53:00,58.5,43.7,29.72,NNW,344,0.0,0.0,58,0.00,,,0.00,meteohub,2013-02-07 04:53:00,
2013-02-06 20:59:00,58.5,43.7,29.72,North,357,0.0,0.0,58,0.00,,,0.00,meteohub,2013-02-07 04:59:00,
2013-02-06 21:01:00,58.6,44.4,29.72,North,357,0.0,0.0,59,0.00,,,0.00,meteohub,2013-02-07 05:01:00,
2013-02-06 21:03:00,58.5,44.6,29.72,NNW,345,0.0,0.0,60,0.00,,,0.00,meteohub,2013-02-07 05:03:00,
2013-02-06 21:09:00,58.5,44.6,29.72,North,357,0.0,0.0,60,0.00,,,0.00,meteohub,2013-02-07 05:09:00,
2013-02-06 21:15:00,58.5,46.8,29.69,NW,318,0.0,0.0,65,0.00,,,0.00,meteohub,2013-02-07 05:15:00,
2013-02-06 21:21:00,58.8,47.1,29.69,North,10,4.0,6.0,65,0.00,,,0.00,meteohub,2013-02-07 05:21:00,
2013-02-06 21:27:00,58.8,47.5,29.72,North,357,4.0,6.0,66,0.00,,,0.00,meteohub,2013-02-07 05:27:00,
2013-02-06 21:33:00,59.0,47.3,29.72,NNW,342,4.0,6.0,65,0.00,,,0.00,meteohub,2013-02-07 05:33:00,
2013-02-06 21:39:00,58.8,46.6,29.72,NNW,344,0.0,6.0,64,0.00,,,0.00,meteohub,2013-02-07 05:39:00,
2013-02-06 21:45:00,58.5,46.4,29.72,North,353,3.0,6.0,64,0.00,,,0.00,meteohub,2013-02-07 05:45:00,
2013-02-06 21:51:00,58.1,46.8,29.72,NNW,337,0.0,4.0,66,0.00,,,0.00,meteohub,2013-02-07 05:51:00,
2013-02-06 21:57:00,58.3,47.8,29.72,NNW,342,0.0,3.0,68,0.00,,,0.00,meteohub,2013-02-07 05:57:00,
2013-02-06 22:03:00,57.7,47.3,29.72,NNW,334,0.0,4.0,68,0.00,,,0.00,meteohub,2013-02-07 06:03:00,
2013-02-06 22:09:00,57.4,46.9,29.72,NW,317,0.0,4.0,68,0.00,,,0.00,meteohub,2013-02-07 06:09:00,
2013-02-06 22:15:00,57.7,47.7,29.72,North,357,0.0,0.0,69,0.00,,,0.00,meteohub,2013-02-07 06:15:00,
2013-02-06 22:21:00,58.1,49.5,29.72,North,357,0.0,0.0,73,0.00,,,0.00,meteohub,2013-02-07 06:21:00,
2013-02-06 22:27:00,57.7,49.1,29.72,NNE,22,2.0,0.0,73,0.00,,,0.00,meteohub,2013-02-07 06:27:00,
2013-02-06 22:33:00,57.6,48.9,29.72,NNE,13,4.0,4.0,73,0.00,,,0.00,meteohub,2013-02-07 06:33:00,
2013-02-06 22:39:00,57.7,49.8,29.72,North,0,0.0,4.0,75,0.00,,,0.00,meteohub,2013-02-07 06:39:00,
2013-02-06 22:45:00,57.6,50.4,29.72,North,6,2.0,4.0,77,0.00,,,0.00,meteohub,2013-02-07 06:45:00,
2013-02-06 22:52:00,57.4,50.5,29.72,North,2,0.0,4.0,78,0.00,,,0.00,meteohub,2013-02-07 06:52:00,
2013-02-06 22:58:00,57.2,50.0,29.72,North,11,0.0,4.0,77,0.00,,,0.00,meteohub,2013-02-07 06:58:00,
2013-02-06 23:04:00,57.0,50.5,29.72,North,0,4.0,4.0,79,0.00,,,0.00,meteohub,2013-02-07 07:04:00,
2013-02-06 23:10:00,57.2,51.1,29.72,North,8,0.0,4.0,80,0.00,,,0.00,meteohub,2013-02-07 07:10:00,
2013-02-06 23:16:00,56.7,50.9,29.72,NNE,14,0.0,4.0,81,0.00,,,0.00,meteohub,2013-02-07 07:16:00,
2013-02-06 23:22:00,56.8,51.4,29.72,North,8,0.0,4.0,82,0.00,,,0.00,meteohub,2013-02-07 07:22:00,
2013-02-06 23:28:00,56.8,51.8,29.72,North,8,0.0,3.0,83,0.00,,,0.00,meteohub,2013-02-07 07:28:00,
2013-02-06 23:34:00,57.0,52.0,29.72,North,6,0.0,4.0,83,0.00,,,0.00,meteohub,2013-02-07 07:34:00,
2013-02-06 23:40:00,56.8,52.0,29.72,North,6,0.0,4.0,84,0.00,,,0.00,meteohub,2013-02-07 07:40:00,
2013-02-06 23:46:00,56.8,52.0,29.72,North,4,0.0,0.0,84,0.00,,,0.00,meteohub,2013-02-07 07:46:00,
2013-02-06 23:52:00,56.8,52.0,29.72,North,3,0.0,0.0,84,0.00,,,0.00,meteohub,2013-02-07 07:52:00,
2013-02-06 23:58:00,56.7,51.6,29.72,North,9,0.0,0.0,83,0.00,,,0.00,meteohub,2013-02-07 07:58:00,